www.pogodaiklimat.ru
Время
(UTC), дата
12 17.11
15 17.11
18 17.11
21 17.11
00 18.11
03 18.11
06 18.11
09 18.11
12 18.11
15 18.11
18 18.11
21 18.11
00 19.11
03 19.11
06 19.11
09 19.11
12 19.11
15 19.11
18 19.11
21 19.11
00 20.11
03 20.11
06 20.11
09 20.11
12 20.11
15 20.11
18 20.11
21 20.11
00 21.11
03 21.11
06 21.11
09 21.11
12 21.11
15 21.11
18 21.11
21 21.11
00 22.11
03 22.11
06 22.11
09 22.11
12 22.11
15 22.11
18 22.11
21 22.11
00 23.11
03 23.11
06 23.11
09 23.11
12 23.11
15 23.11
18 23.11
21 23.11
00 24.11
03 24.11
06 24.11
Ветер
(напр.,м/с)
Видим. Явления Облачность Т
(С)
Тd
(С)
f
(%)
Тe
(С)
Тes
(С)
Комфортность P
(гПа)
Po
(гПа)
Тmin
(С)
Tmax
(С)
R
(мм)
R24
(мм)
S
(см)
Ю 6
{11}
10 км в посл. час ливневой снег 10/8 300 м
[Cb cap Ac und]
0.0 -2.4 84 -7 -7 холодно 1027.8 1024.5
Ю 7-11
{11}
4000 м слаб. снег 10/10 300 м
[Ns]
-0.8 -1.4 96 -8 -8 холодно 1027.8 1024.5 0.8
Ю 6-10
{11}
4000 м слаб. снег 10/10 300 м
[Ns]
-0.8 -2.1 91 -8 -8 холодно 1027.2 1023.9 +0.3 1
Ю 7-11
{12}
10 км {снег} 10/0
[Ac und]
-0.6 -2.7 86 -8 -8 холодно 1026.6 1023.3
Ю 7-11
{12}
10 км {снег} 10/0
[Ac und]
-0.7 -2.5 88 -8 -8 холодно 1024.9 1021.6
Ю 8-12
{13}
4000 м слаб. переохл. дождь (гололёд) [диам. гололёда 0 мм] 10/10 300 м
[Ns]
-0.6 -2.0 90 -8 -8 холодно 1022.9 1019.6 -1.0 0.5
Ю 7-11
{14}
4000 м слаб. переохл. дождь (гололёд) [диам. гололёда 2 мм] 10/10 300 м
[Ns]
-0.3 -0.7 97 -8 -8 прохладно 1019.4 1016.1 -0.8 1 1
Ю 7-12
{14}
4000 м слаб. снег {дождь} [диам. гололёда 3 мм] 10/10 300 м
[Ns]
+0.2 +0.1 99 -7 -7 прохладно 1016.8 1013.6
Ю 6
{12}
4000 м слаб. морось {дождь} [диам. гололёда 3 мм] 10/10 300 м
[St]
+1.4 +1.3 99 -5 -5 прохладно 1015.9 1012.7
Ю 5 4000 м слаб. морось 10/10 300 м
[St]
+2.5 +2.5 100 -3 -3 по сезону 1016.4 1013.2 5
Ю 5 4000 м слаб. морось {дождь} 10/10 300 м
[St]
+3.7 +3.7 100 -2 -2 по сезону 1015.6 1012.4 +3.7 5
Ю 5
{10}
4000 м морось 10/10 300 м
[St]
+5.2 +5.1 99 0 0 по сезону 1013.7 1010.5
Ю 5 4000 м морось 10/10 300 м
[St]
+7.0 +6.9 99 +3 +3 тепло 1012.0 1008.9
Ю 7-11
{11}
4000 м дымка 10/10 300 м
[Sc]
+8.3 +7.9 97 +4 +4 тепло 1010.1 1007.0 +2.5 0.9
Ю 6
{11}
4000 м дождь {морось} 10/10 100 м
[St]
+6.3 +6.2 99 +1 +1 по сезону 1007.8 1004.6 +3.7 0.7
ЮЗ 7-11
{13}
10 км {дождь, морось} 10/10 300 м
[Sc]
+9.2 +7.0 86 +5 +5 тепло 1005.2 1002.1
Ю 8-12
{13}
10 км {дождь, морось} 10/10 300 м
[Sc]
+9.0 +6.8 86 +5 +5 тепло 1001.7 998.6
Ю 8-12
{13}
10 км 10/10 600 м
[Sc]
+8.2 +5.6 84 +4 +4 тепло 1000.9 997.8 0.4
ЮЗ 6-10
{12}
4000 м слаб. ливневой дождь 10/10 300 м
[Cb cap]
+6.6 +5.9 95 +2 +2 тепло 1001.3 998.2 +9.4 1
ЮЗ 7-10
{13}
10 км {ливн. дождь} 10/10 600 м
[Cb cap]
+6.7 +5.5 92 +2 +2 тепло 1000.5 997.4
Ю 7-10
{14}
10 км {ливн. дождь} 10/10 600 м
[Cb cap]
+6.0 +5.2 95 +1 +1 тепло 1000.0 996.8
З 6-12
{16}
4000 м ливневой дождь 10/10 300 м
[Cb cap]
+4.2 +2.2 87 -1 -1 по сезону 1000.9 997.8 +4.1 3
З 5
{11}
10 км {ливн. снег} 6/4 300 м
[Sc Ac lent Cc]
+1.9 -1.1 80 -4 -4 по сезону 1004.8 1001.6 +1.9 2
ЮЗ 3 20 км 4/3 300 м
[Sc diur, vesp Ac lent]
+2.6 +0.3 85 -2 -1 по сезону 1007.6 1004.4
ЮЗ 3
{10}
20 км 4/4 300 м
[Sc]
+2.5 -0.4 81 -2 -1 по сезону 1009.1 1005.9
ЮЗ 3 10 км 4/4 300 м
[Sc]
+1.1 -1.0 86 -3 -3 по сезону 1011.4 1008.2 0.0
ЮЗ 3 10 км 3/3 300 м
[Sc]
+1.2 -1.0 85 -3 -3 по сезону 1014.4 1011.2 +3.2
З 4 10 км 10/10 600 м
[Sc]
+0.9 -0.1 93 -5 -5 по сезону 1016.9 1013.7
З 3 10 км 8/8 600 м
[Sc]
+1.5 +0.6 94 -3 -3 по сезону 1019.8 1016.6
ЮЗ 1 10 км 8/8 600 м
[Sc]
-0.3 -0.6 98 -3 -3 по сезону 1022.2 1018.9 -0.4
ЮЗ 2 10 км 10/10 300 м
[Sc]
+0.4 +0.3 99 -3 -3 по сезону 1024.3 1021.0 -0.4
ЮЗ 1 20 км 10/10 600 м
[Sc]
+1.3 +1.0 98 -1 -1 по сезону 1025.0 1021.7
ЮЗ 3 20 км 8/8 600 м
[Sc]
+2.2 +0.8 90 -2 -2 по сезону 1024.7 1021.5
ЮЗ 3 20 км 10/10 600 м
[Sc]
+0.7 -0.2 94 -4 -4 по сезону 1024.3 1021.0
Ю 6-10
{10}
20 км 10/0
[Ac As]
+1.0 -0.5 90 -5 -5 по сезону 1021.5 1018.2 +2.3
Ю 7-11
{11}
10 км 10/10 600 м
[Sc]
+0.7 -0.7 90 -6 -6 по сезону 1017.5 1014.3
Ю 7-11
{12}
10 км 10/10 600 м
[Sc]
+1.0 -0.8 88 -6 -6 по сезону 1013.8 1010.6
Ю 10-14
{14}
1000 м ливневой снег {метель} 10/10 300 м
[Cb cap]
0.0 0.0 100 -9 -9 прохладно 1009.3 1006.1 0.0 2
ЮЗ 7-10
{14}
2000 м слаб. ливневой снег {метель} [диам. отлож. мокр. снега 2 мм] 10/10 300 м
[Cb cap]
0.0 -0.1 99 -7 -7 прохладно 1007.2 1004.0 -0.1 4 5
ЮЗ 6
{11}
4000 м дымка {ливн. снег} [диам. отлож. мокр. снега 2 мм] 10/10 300 м
[St]
+0.4 +0.4 100 -6 -6 по сезону 1006.1 1002.9
ЮЗ 5 4000 м дымка {ливн. снег} 10/10 300 м
[St]
+1.2 +1.2 100 -5 -5 по сезону 1005.7 1002.5
ЮЗ 4 4000 м дымка 10/10 300 м
[Sc]
+1.7 +1.7 100 -4 -4 по сезону 1004.8 1001.6 3
ЮЗ 5 4000 м дымка {дождь} 10/10 300 м
[Sc]
+2.1 +2.0 99 -4 -4 по сезону 1003.9 1000.7 +2.3 1
ЮЗ 5 4000 м слаб. дождь 10/10 300 м
[Sc]
+2.3 +2.0 98 -3 -3 по сезону 1003.1 999.9
ЮЗ 4 4000 м дымка {дождь} 10/10 300 м
[Sc]
+2.5 +2.2 98 -3 -3 по сезону 1002.7 999.5
Ю 5 4000 м дымка 10/10 300 м
[Sc]
+2.7 +2.4 98 -3 -3 по сезону 1002.1 998.9 +1.7 0.1
ЮЗ 4 4000 м дождь 10/10 300 м
[Ns]
+3.6 +3.3 98 -1 -1 по сезону 1001.5 998.3 +2.1 0.3
ЮЗ 2 10 км {дождь} 8/3 300 м
[Sc Ac trans Ci]
+5.2 +4.6 96 +2 +3 тепло 1001.4 998.2
ЮЗ 2 10 км в посл. час ливневой дождь 8/3 300 м
[Cb cap Ac trans Cc]
+5.4 +4.7 95 +3 +3 тепло 1001.2 998.0
ЮЗ 2 10 км {ливн. дождь} 9/3 600 м
[Cb cap Ac trans Cs]
+3.6 +3.4 99 0 0 по сезону 1001.9 998.7 2
ЮЗ 2 10 км {ливн. снег} 4/0
[Cs]
+1.5 +1.5 100 -2 -2 по сезону 1002.1 998.9 +6.5 1
ЮЗ 2 4000 м дымка 10/10 600 м
[Sc]
+2.5 +2.5 100 -1 -1 по сезону 1002.7 999.5
ЮЗ 2 4000 м дымка 9/9 600 м
[Sc]
+1.3 +1.3 100 -2 -2 по сезону 1003.2 1000.0
З 3 4000 м в посл. час ливневой дождь 10/10 300 м
[Cb cap]
+2.2 +2.2 100 -2 -2 по сезону 1003.7 1000.5 0.0 0.0
З 3 20 км 10/10 600 м
[Sc]
+2.6 +2.3 98 -2 -2 по сезону 1005.2 1002.0 +0.6 0.0
Местоположение метеостанции Великий Новгород (Новгородская область, Россия): широта 58.52 долгота 31.25 высота над уровнем моря 26 м.
В архиве по умолчанию представлена погода в Великом Новгороде за последнюю неделю. Архивные данные за месяц целиком и за предыдущие месяцы, начиная с января 2011 года, Вы можете получить, выбрав интересующий диапазон дат из раскрывающегося списка и нажав кнопку "Найти!".
*Определитесь, кто Вы:
Внимание! Время в таблицах - всемирное. Для получения местного времени необходимо прибавить поправку, которая равна 3 ч.
Смотрите также архив погоды в соседних городах и на ближайших метеорологических станциях:
Партнеры нашего сайта:      
Пояснения к столбцам:
  • Ветер - указаны скорость ветра в м/с - средняя за 10 мин, порывы в срок и между сроками (в фигурных скобках) и направление, откуда дует ветер: С - северный,
  • СВ - северо-восточный, В - восточный, ЮВ - юго-восточный, Ю - южный, ЮЗ - юго-западный, З - западный, СЗ - северо-западный.
  • Видимость - горизонтальная дальность видимости в метрах или километрах. При видимости от 1 до 10 км при отсутствии осадков обычно наблюдается дымка, при ухудшении видимости до 1 км и менее - туман. В сухую погоду видимость может ухудшаться дымом, пылью или мглою.
  • Явления - указаны атмосферные явления, наблюдавшиеся в срок или в последний час перед сроком; фигурными скобками обозначены явления, наблюдавшиеся между сроками (за 1-3 часа до срока); квадратными скобками обозначены град или гололедные отложения с указанием их диаметра в мм.
  • Облачность - указаны через наклонную черту общая и нижняя облачность в баллах и высота нижней границы облаков в метрах; квадратными скобками обозначены формы облаков: Ci - перистые, Cs - перисто-слоистые, Cc - перисто-кучевые, Ac - высококучевые, As - высокослоистые, Sc - слоисто-кучевые, Ns - слоисто-дождевые, Cu - кучевые, Cb - кучево-дождевые. Подробнее классификацию облаков см. в Атласе облаков (PDF).
  • T - Температура воздуха - температура, измеренная на высоте 2 м над землей.
  • Td - Температура точки росы - температура, при понижении до которой содержащийся в воздухе водяной пар достигнет насыщения.
  • f - Относительная влажность воздуха - влажноcть воздуха, измеренная на высоте 2 м над землей.
  • Te - Эффективная температура - температура, которую ощущает одетый по сезону человек в тени. Характеристика душности погоды. При расчете учитывается влияние влажности воздуха и скорости ветра на теплоощущения человека.
  • Tes - Эффективная температура на солнце - температура, которую ощущает человек, с поправкой на солнечный нагрев. Характеристика знойности погоды. Зависит от высоты солнца над горизонтом, облачности и скорости ветра. Ночью, в пасмурную погоду, а также при ветре 12 м/с и более поправка равна нулю.
  • P - Атмосферное давление - приведенное к уровню моря атмосферное давление.
  • Po - Атмосферное давление - измеренное на уровне метеостанции атмосферное давление.
  • Tmin - Минимальная температура - минимум температуры воздуха на высоте 2 м над землей.
  • Tmax - Максимальная температура - максимум температуры воздуха на высоте 2 м над землей.
  • R - Количество осадков - Количество выпавших осадков за период времени, мм. При наведении курсора мыши на число - период времени, за который выпало указанное количество осадков.
  • R24 - Количество осадков - Количество выпавших осадков за 24 часа, мм.
  • S - Снежный покров - Высота снежного покрова, см. При наведении курсора мыши на число - состояние снежного покрова и степень покрытия местности в баллах.